Regional Weather Roundup
Issued by NWS Mt. Holly, NJ

Home | Current Version | Previous Version | Text Only | Print | Product List | Glossary On
Versions: 1 2 3 4 5 6 7 8 9 10 11 12 13 14 15 16 17 18 19 20 21 22 23 24 25 26 27 28 29 30 31 32 33 34 35 36 37 38 39 40 41 42 43 44 45 46 47 48 49 50
000
ASUS41 KPHI 021712
RWRPHI

REGIONAL WEATHER ROUNDUP
NATIONAL WEATHER SERVICE MOUNT HOLLY NJ
100 PM EDT THU JUL 02 2015

NOTE:  "FAIR" INDICATES FEW OR NO CLOUDS BELOW 12,000 FEET WITH NO
SIGNIFICANT WEATHER AND/OR OBSTRUCTIONS TO VISIBILITY.

 * = STATION DOES NOT REPORT PRECIPITATION (E.G. RAIN, SNOW, ETC.)
        OR FOG.

NJZ015>026-021800-
SOUTHERN NEW JERSEY

CITY           SKY/WX    TMP DP  RH WIND       PRES   REMARKS
POMONA         RAIN      68  66  93 NE8       29.90S FOG
RIO GRANDE*    CLOUDY    66  63  88 NE9       29.89F
MILLVILLE      LGT RAIN  68  65  90 E7        29.89F FOG
WRIGHTSTOWN    CLOUDY    72  64  76 E3        29.89S
MOUNT HOLLY    CLOUDY    71  62  73 E6        29.91S
TRENTON        CLOUDY    74  61  63 SE3       29.90F

$$
NJZ001>014-021800-
NORTHERN NEW JERSEY

CITY           SKY/WX    TMP DP  RH WIND       PRES   REMARKS
SUSSEX         PTSUNNY   75  58  55 NE3       29.92S
ANDOVER*         N/A     74  59  59 VRB5      29.92F
MORRISTOWN     CLOUDY    82  59  44 CALM      29.90F
NEWARK         PTSUNNY   80  58  46 E7        29.89F
TETERBORO      PTSUNNY   80  56  43 NW5       29.88F
CALDWELL       PTSUNNY   78  56  46 CALM      29.90S
SOMERVILLE     CLOUDY    78  62  57 VRB3      29.88F
ALLAIRE*       CLOUDY    72  63  73 CALM      29.92R
TOMS RIVER*    CLOUDY    70  63  78 CALM      29.92R

$$
PAZ043-044-047-054-055-060>062-066>071-021800-
EASTERN PENNSYLVANIA

CITY           SKY/WX    TMP DP  RH WIND       PRES   REMARKS
PHILADELPHIA   CLOUDY    75  63  66 E7        29.91S
NORTH PHILA    CLOUDY    76  60  57 E7        29.92F
DOYLESTOWN     CLOUDY    72  61  68 CALM      29.91S
QUAKERTOWN*    CLOUDY    75  63  64 S3        29.93R
POTTSTOWN      CLOUDY    74  62  66 CALM      29.93S
LANCASTER      CLOUDY    73  63  70 SE6       29.90F
READING        CLOUDY    75  61  61 S8        29.90S
ALLENTOWN      PTSUNNY   77  58  51 CALM      29.91S
MOUNT POCONO   CLOUDY    70  55  59 E5        29.95F
WILKES BARRE   MOSUNNY   75  56  51 CALM      29.93F

$$
DEZALL-MDZ008-012-015-019-020-021800-
DELAWARE AND EASTERN MARYLAND

CITY           SKY/WX    TMP DP  RH WIND       PRES   REMARKS
WILMINGTON     CLOUDY    73  65  75 NE6       29.91S
DOVER          CLOUDY    69  69 100 N6        29.87S
GEORGETOWN     CLOUDY    71  68  90 NE16      29.88S FOG
EASTON         CLOUDY    72  72 100 NE8       29.92S FOG
ABERDEEN       CLOUDY    72  68  88 NE5       29.91F FOG
PATUXENT       PTSUNNY   75  67  76 N9        29.87S
OCEAN CITY     LGT RAIN  71  69  93 N10       29.87R
WALLOPS ISLAND PTSUNNY   83  75  77 W10       29.85S HX  90
CAMBRIDGE      CLOUDY    73  68  83 NE6       29.87S
SALISBURY      PTSUNNY   73  69  87 N6        29.87S

$$
PAZ001-021-NYZ056-072-MDZ011-DCZ001-021800-
OTHER NEARBY LOCATIONS

CITY           SKY/WX    TMP DP  RH WIND       PRES   REMARKS
HARRISBURG     PTSUNNY   76  61  59 CALM      29.90S
STATE COLLEGE  MOSUNNY   73  57  56 VRB3      29.95S
WILLIAMSPORT   MOSUNNY   75  57  53 CALM      29.91F
BINGHAMTON     PTSUNNY   68  54  60 VRB6      29.95F
NEW YORK CITY  PTSUNNY   79  58  48 CALM      29.92F
BALTIMORE      CLOUDY    73  64  73 NE6       29.89F
WASHINGTON DC  CLOUDY    76  65  68 CALM      29.90S

$$



USA.gov is the U.S. government's official web portal to all federal, state and local government web resources and services.